When you browse on this site, cookies collect data to enhance your experience and personalize the content and advertising you see.
Visit our Privacy Policy to learn more. By continuing to use the site, you agree to this use of cookies and data.
  • In Österreich
  • Länderverzeichnis
  • Für 7 Tage
  • Wassertemperatur
  • Satellitenkarten
  • Wetterkarte
  • News
  • Widgets
  • user-avatar
    Anmelden

    Stündliche Wetter Hillerød

    Heute, 21 Januar, Montag

    Zeit Temperatur Niederschläge Wind Luftdruck Luftfeuchtigkeit
    00:00 -1°C° 0 mm 4 m/S 760 mmHg 87%
    01:00 -2°C° 0 mm 4 m/S 760 mmHg 89%
    02:00 -2°C° 0 mm 4 m/S 760 mmHg 88%
    03:00 -2°C° 0 mm 5 m/S 759 mmHg 87%
    04:00 -2°C° 0 mm 5 m/S 759 mmHg 86%
    05:00 -3°C° 0 mm 6 m/S 758 mmHg 84%
    06:00 -3°C° 0 mm 6 m/S 758 mmHg 81%
    07:00 -3°C° 0 mm 6 m/S 757 mmHg 79%
    08:00 -3°C° 0.7 mm 7 m/S 757 mmHg 83%
    09:00 -2°C° 0.7 mm 7 m/S 757 mmHg 86%
    10:00 -2°C° 0.7 mm 7 m/S 756 mmHg 90%
    11:00 -1°C° 0.1 mm 6 m/S 756 mmHg 88%
    12:00 0°C° 0.1 mm 5 m/S 756 mmHg 87%
    13:00 +1°C° 0.1 mm 5 m/S 755 mmHg 85%
    14:00 +1°C° 0.2 mm 4 m/S 755 mmHg 86%
    15:00 +1°C° 0.2 mm 4 m/S 755 mmHg 86%
    16:00 +1°C° 0.2 mm 4 m/S 755 mmHg 86%
    17:00 +1°C° 0 mm 3 m/S 755 mmHg 87%
    18:00 +1°C° 0 mm 3 m/S 754 mmHg 87%
    19:00 +1°C° 0 mm 3 m/S 754 mmHg 88%
    20:00 +1°C° 0 mm 3 m/S 754 mmHg 89%
    21:00 +1°C° 0 mm 3 m/S 754 mmHg 91%
    22:00 +2°C° 0 mm 2 m/S 754 mmHg 92%
    23:00 +1°C° 0.1 mm 3 m/S 754 mmHg 93%

    Morgen, 22 Januar, Dienstag

    Zeit Temperatur Niederschläge Wind Luftdruck Luftfeuchtigkeit
    00:00 +1°C° 0.1 mm 3 m/S 754 mmHg 93%
    01:00 +1°C° 0.1 mm 3 m/S 754 mmHg 94%
    02:00 0°C° 0 mm 3 m/S 754 mmHg 93%
    03:00 0°C° 0 mm 3 m/S 753 mmHg 93%
    04:00 0°C° 0 mm 3 m/S 753 mmHg 92%
    05:00 0°C° 0 mm 3 m/S 753 mmHg 92%
    06:00 -1°C° 0 mm 3 m/S 752 mmHg 92%
    07:00 -1°C° 0 mm 2 m/S 752 mmHg 92%
    08:00 -1°C° 0 mm 3 m/S 752 mmHg 93%
    09:00 -1°C° 0 mm 3 m/S 752 mmHg 93%
    10:00 -1°C° 0 mm 3 m/S 752 mmHg 94%
    11:00 -1°C° 0 mm 4 m/S 752 mmHg 93%
    12:00 -1°C° 0 mm 4 m/S 751 mmHg 92%
    13:00 -1°C° 0 mm 4 m/S 751 mmHg 91%
    14:00 -1°C° 0 mm 5 m/S 751 mmHg 90%
    15:00 -1°C° 0 mm 5 m/S 751 mmHg 89%
    16:00 -2°C° 0 mm 5 m/S 750 mmHg 88%
    17:00 -3°C° 0 mm 6 m/S 750 mmHg 88%
    18:00 -3°C° 0 mm 6 m/S 750 mmHg 87%
    19:00 -3°C° 0 mm 6 m/S 750 mmHg 86%
    20:00 -3°C° 0 mm 6 m/S 750 mmHg 83%
    21:00 -3°C° 0 mm 6 m/S 750 mmHg 80%
    22:00 -3°C° 0 mm 6 m/S 750 mmHg 77%
    23:00 -3°C° 0 mm 6 m/S 750 mmHg 75%

    übermorgen, 23 Januar, Mittwoch

    Zeit Temperatur Niederschläge Wind Luftdruck Luftfeuchtigkeit
    00:00 -3°C° 0 mm 6 m/S 749 mmHg 74%
    01:00 -3°C° 0 mm 6 m/S 749 mmHg 72%
    02:00 -4°C° 0 mm 6 m/S 749 mmHg 72%
    03:00 -4°C° 0 mm 6 m/S 749 mmHg 72%
    04:00 -4°C° 0 mm 6 m/S 749 mmHg 72%
    05:00 -4°C° 0 mm 6 m/S 749 mmHg 72%
    06:00 -4°C° 0 mm 6 m/S 749 mmHg 71%
    07:00 -4°C° 0 mm 5 m/S 749 mmHg 71%
    08:00 -2°C° 0 mm 5 m/S 750 mmHg 71%
    09:00 -2°C° 0 mm 5 m/S 750 mmHg 70%
    10:00 -2°C° 0 mm 5 m/S 751 mmHg 70%
    11:00 -2°C° 0 mm 5 m/S 751 mmHg 69%
    12:00 -1°C° 0 mm 5 m/S 751 mmHg 68%
    13:00 -1°C° 0 mm 5 m/S 751 mmHg 67%
    14:00 -1°C° 0 mm 5 m/S 751 mmHg 69%
    15:00 -2°C° 0 mm 4 m/S 752 mmHg 71%
    16:00 -2°C° 0 mm 4 m/S 752 mmHg 73%
    17:00 -3°C° 0 mm 4 m/S 752 mmHg 73%
    18:00 -3°C° 0 mm 4 m/S 752 mmHg 74%
    19:00 -3°C° 0 mm 4 m/S 753 mmHg 74%
    20:00 -3°C° 0 mm 4 m/S 753 mmHg 74%
    21:00 -3°C° 0 mm 4 m/S 754 mmHg 75%
    22:00 -2°C° 0 mm 3 m/S 754 mmHg 75%
    23:00 -2°C° 0 mm 3 m/S 754 mmHg 76%

    24 Januar, Donnerstag

    Zeit Temperatur Niederschläge Wind Luftdruck Luftfeuchtigkeit
    00:00 -2°C° 0 mm 3 m/S 754 mmHg 76%
    01:00 -2°C° 0 mm 3 m/S 755 mmHg 77%
    02:00 -2°C° 0 mm 3 m/S 755 mmHg 78%
    03:00 -2°C° 0 mm 2 m/S 755 mmHg 79%
    04:00 -2°C° 0 mm 2 m/S 755 mmHg 79%
    05:00 -2°C° 0 mm 2 m/S 755 mmHg 80%
    06:00 -2°C° 0 mm 2 m/S 756 mmHg 80%
    07:00 -2°C° 0 mm 2 m/S 756 mmHg 80%
    08:00 -2°C° 0 mm 2 m/S 756 mmHg 79%
    09:00 -2°C° 0 mm 2 m/S 757 mmHg 78%
    10:00 -2°C° 0 mm 2 m/S 757 mmHg 76%
    11:00 -1°C° 0 mm 2 m/S 757 mmHg 74%
    12:00 -1°C° 0 mm 2 m/S 757 mmHg 73%
    13:00 -1°C° 0 mm 3 m/S 757 mmHg 71%
    14:00 -1°C° 0 mm 3 m/S 757 mmHg 71%
    15:00 -1°C° 0 mm 3 m/S 757 mmHg 72%
    16:00 -2°C° 0 mm 3 m/S 757 mmHg 73%
    17:00 -2°C° 0 mm 3 m/S 757 mmHg 73%
    18:00 -2°C° 0 mm 2 m/S 758 mmHg 74%
    19:00 -3°C° 0 mm 2 m/S 758 mmHg 75%
    20:00 -4°C° 0 mm 3 m/S 758 mmHg 76%
    21:00 -4°C° 0 mm 3 m/S 758 mmHg 76%
    22:00 -4°C° 0 mm 3 m/S 758 mmHg 77%
    23:00 -4°C° 0 mm 3 m/S 758 mmHg 78%

    25 Januar, Freitag

    Zeit Temperatur Niederschläge Wind Luftdruck Luftfeuchtigkeit
    00:00 -4°C° 0 mm 3 m/S 758 mmHg 78%
    01:00 -4°C° 0 mm 3 m/S 758 mmHg 78%
    02:00 -4°C° 0 mm 3 m/S 758 mmHg 79%
    03:00 -4°C° 0 mm 3 m/S 757 mmHg 79%
    04:00 -4°C° 0 mm 3 m/S 757 mmHg 80%
    05:00 -4°C° 0 mm 3 m/S 757 mmHg 80%
    06:00 -4°C° 0 mm 4 m/S 757 mmHg 80%
    07:00 -4°C° 0 mm 4 m/S 757 mmHg 81%
    08:00 -5°C° 0 mm 5 m/S 756 mmHg 79%
    09:00 -5°C° 0 mm 5 m/S 756 mmHg 77%
    10:00 -4°C° 0 mm 6 m/S 756 mmHg 75%
    11:00 -4°C° 0 mm 7 m/S 755 mmHg 74%
    12:00 -4°C° 0 mm 7 m/S 754 mmHg 72%
    13:00 -4°C° 0 mm 8 m/S 754 mmHg 70%
    14:00 -4°C° 0.2 mm 8 m/S 752 mmHg 74%
    15:00 -4°C° 0.2 mm 9 m/S 751 mmHg 77%
    16:00 -4°C° 0.2 mm 10 m/S 750 mmHg 80%
    17:00 -4°C° 1.4 mm 10 m/S 749 mmHg 83%
    18:00 -4°C° 1.4 mm 10 m/S 748 mmHg 86%
    19:00 -3°C° 1.4 mm 11 m/S 747 mmHg 89%
    20:00 -3°C° 0.9 mm 9 m/S 746 mmHg 91%
    21:00 -2°C° 0.9 mm 8 m/S 746 mmHg 93%
    22:00 -1°C° 0.9 mm 7 m/S 745 mmHg 94%
    23:00 -1°C° 0.1 mm 6 m/S 745 mmHg 93%

    26 Januar, Samstag

    Zeit Temperatur Niederschläge Wind Luftdruck Luftfeuchtigkeit
    00:00 -1°C° 0.1 mm 6 m/S 745 mmHg 93%
    01:00 0°C° 0.1 mm 5 m/S 745 mmHg 92%
    02:00 -1°C° 0 mm 6 m/S 745 mmHg 90%
    03:00 -1°C° 0 mm 6 m/S 744 mmHg 87%
    04:00 -1°C° 0 mm 6 m/S 744 mmHg 85%
    05:00 -1°C° 0 mm 6 m/S 744 mmHg 86%
    06:00 -1°C° 0 mm 7 m/S 744 mmHg 87%
    07:00 -1°C° 0 mm 7 m/S 744 mmHg 88%
    08:00 -1°C° 0 mm 7 m/S 744 mmHg 88%
    09:00 -1°C° 0 mm 6 m/S 744 mmHg 89%
    10:00 -1°C° 0 mm 6 m/S 744 mmHg 90%
    11:00 +1°C° 0 mm 6 m/S 744 mmHg 90%
    12:00 +1°C° 0 mm 6 m/S 744 mmHg 90%
    13:00 +1°C° 0 mm 6 m/S 744 mmHg 89%
    14:00 +1°C° 0 mm 6 m/S 744 mmHg 90%
    15:00 -1°C° 0 mm 6 m/S 744 mmHg 91%
    16:00 0°C° 0 mm 5 m/S 743 mmHg 91%
    17:00 0°C° 0 mm 5 m/S 743 mmHg 92%
    18:00 0°C° 0 mm 5 m/S 743 mmHg 93%
    19:00 -1°C° 0 mm 5 m/S 743 mmHg 93%
    20:00 -1°C° 0 mm 5 m/S 743 mmHg 94%
    21:00 -1°C° 0 mm 4 m/S 742 mmHg 94%
    22:00 -1°C° 0 mm 4 m/S 742 mmHg 95%
    23:00 -1°C° 0 mm 4 m/S 742 mmHg 95%
    Mehr zeigen